User: anonymous   Login
Location: Unspecified
(0.0000°N, 0.0000°E)
Time: 08:24:08
(UTC+01:00)
Language:

Cosmos 1295 Rocket - Orbit

View from above orbital plane
View from above orbital plane
View from above satellite
View from above satellite

Ground track
Ground track

The orbit data is extracted from the following two-line orbital elements,

1 12682U 81077B   14331.17882328  .00000068  00000-0  51130-4 0  8226
2 12682 082.9165 353.9354 0035391 081.9047 343.4661 13.78468297674328
Epoch (UTC): 27 November 2014 04:17:30
Eccentricity: 0.0035391
inclination: 82.9165°
perigee height: 943 km
apogee height: 995 km
right ascension of ascending node: 353.9354°
argument of perigee: 81.9047°
revolutions per day: 13.78468297
mean anomaly at epoch: 343.4661°
orbit number at epoch: 67432

The dashed part of the orbit path shows where the satellite is in the earth's shadow,  

DLR